FW1095 Weather Reports


time (UTC)temp
C
wind
direction
speed
KPH
gust
KPH
rain 1hr
cm
rain 24hr
cm
rain mn
cm
humidity
%
barometer
mb
20260502183016 5 338 16.1 24.1 0.00 0.00 0.00 58 1015.5
20260502183004 5 312 16.1 25.7 0.00 0.00 0.00 58 1014.3
20260502182516 5 322 16.1 22.5 0.00 0.00 0.00 61 1015.5
20260502182027 5 315 17.7 22.5 0.00 0.00 0.00 59 1015.5
20260502181528 5 335 12.9 22.5 0.00 0.00 0.00 61 1015.5
20260502181503 5 315 12.9 24.1 0.00 0.00 0.00 60 1014.3
20260502181038 5 318 12.9 22.5 0.00 0.00 0.00 62 1015.6
20260502180516 5 315 12.9 19.3 0.00 0.00 0.00 65 1015.6
20260502164038 3 324 11.3 17.7 0.00 0.00 0.00 81 1016.2
20260502163527 3 324 14.5 17.7 0.00 0.00 0.00 80 1016.2
20260502163016 3 331 12.9 19.3 0.00 0.00 0.00 81 1016.3
20260502163003 3 329 14.5 20.9 0.00 0.00 0.00 81 1015.8
20260502162516 3 333 14.5 20.9 0.00 0.00 0.00 82 1016.3
20260502162016 3 326 14.5 20.9 0.00 0.00 0.00 82 1016.4
20260502161539 3 315 16.1 20.9 0.00 0.00 0.00 82 1016.4
20260502161503 3 338 17.7 22.5 0.00 0.00 0.00 82 1016.4
20260502161016 3 322 16.1 20.9 0.00 0.00 0.00 81 1016.4
20260502160516 3 297 12.9 20.9 0.00 0.00 0.00 83 1016.4
20260502152039 3 327 14.5 22.5 0.00 0.00 0.00 80 1016.5
20260502151516 3 327 12.9 20.9 0.00 0.00 0.00 82 1016.5
20260502151503 3 330 12.9 22.5 0.00 0.00 0.00 81 1015.2
20260502151038 3 317 16.1 20.9 0.00 0.00 0.00 81 1016.4
20260502130516 2 248 14.5 20.9 0.00 0.00 0.00 72 1017.1
20260502123016 2 259 16.1 22.5 0.00 0.00 0.00 73 1017.3
20260502123012 2 265 16.1 24.1 0.00 0.00 0.00 73 1016.5
20260502122539 2 271 17.7 24.1 0.00 0.00 0.00 74 1017.3
20260502122016 2 275 17.7 25.7 0.00 0.00 0.00 74 1017.3
20260502121532 1 271 16.1 27.4 0.00 0.00 0.00 74 1016.4
20260502121517 1 263 16.1 25.7 0.00 0.00 0.00 74 1017.3
20260502121039 1 267 16.1 25.7 0.00 0.00 0.00 74 1017.2
20260502120516 1 245 11.3 25.7 0.00 0.00 0.00 75 1017.2
20260502115528 1 254 17.7 24.1 0.00 0.00 0.00 75 1017.3
20260502115017 1 244 14.5 24.1 0.00 0.00 0.00 75 1017.2
20260502114511 1 257 16.1 27.4 0.00 0.00 0.00 75 1016.4
20260502114039 1 263 12.9 25.7 0.00 0.00 0.00 76 1017.2
20260502113017 0 257 12.9 19.3 0.00 0.00 0.00 77 1017.0
20260502113008 0 265 14.5 20.9 0.00 0.00 0.00 77 1016.4
20260502112017 0 258 11.3 19.3 0.00 0.00 0.00 78 1016.9
20260502111517 0 253 11.3 16.1 0.00 0.00 0.00 78 1016.9
20260502111512 0 257 9.7 17.7 0.00 0.00 0.00 78 1016.4
20260502111017 0 242 9.7 14.5 0.00 0.00 0.00 78 1016.9
20260502110550 0 265 6.4 14.5 0.00 0.00 0.00 79 1016.9
20260502110017 0 242 9.7 14.5 0.00 0.00 0.00 79 1016.9
20260502110003 0 240 9.7 16.1 0.00 0.00 0.00 78 1016.3
20260502105017 0 236 8.0 14.5 0.00 0.00 0.00 78 1016.8
20260502104516 0 227 9.7 14.5 0.00 0.00 0.00 78 1016.9
20260502104504 0 267 9.7 16.1 0.00 0.00 0.00 78 1016.1
20260502104050 0 238 9.7 16.1 0.00 0.00 0.00 78 1016.9
20260502103539 0 229 9.7 16.1 0.00 0.00 0.00 78 1017.0
20260502103017 0 249 9.7 17.7 0.00 0.00 0.00 78 1017.0
20260502103007 0 249 9.7 19.3 0.00 0.00 0.00 77 1015.5
20260502102527 0 240 9.7 17.7 0.00 0.00 0.00 78 1016.9
20260502102017 0 240 9.7 16.1 0.00 0.00 0.00 78 1016.9
20260502101517 0 248 8.0 14.5 0.00 0.00 0.00 78 1016.8
20260502101512 0 261 8.0 16.1 0.00 0.00 0.00 77 1015.5
20260502101017 0 245 9.7 19.3 0.00 0.00 0.00 78 1017.0
20260502100517 0 238 9.7 19.3 0.00 0.00 0.00 78 1016.9
20260502091509 0 258 8.0 16.1 0.00 0.00 0.00 77 1016.1
20260502091050 0 244 9.7 14.5 0.00 0.00 0.00 78 1016.8
20260502090528 0 246 9.7 14.5 0.00 0.00 0.00 78 1016.8
20260502071503 0 241 6.4 16.1 0.00 0.03 0.00 76 1015.8
20260502071017 0 229 8.0 11.3 0.00 0.03 0.00 77 1016.7
20260502070539 0 240 8.0 11.3 0.00 0.03 0.00 77 1016.7
20260502070017 0 242 4.8 11.3 0.00 0.03 0.00 76 1015.3
20260502065517 0 240 4.8 9.7 0.00 0.03 0.00 76 1016.8
20260502064550 1 257 6.4 11.3 0.00 0.03 0.00 76 1016.9
20260502064510 1 263 4.8 14.5 0.00 0.03 0.00 75 1015.5
20260502063528 1 259 6.4 12.9 0.00 0.03 0.00 75 1016.9
20260502063028 1 252 8.0 12.9 0.00 0.03 0.00 75 1016.9
20260502063024 1 256 8.0 16.1 0.00 0.03 0.00 74 1015.8
20260502062517 1 228 9.7 14.5 0.00 0.03 0.00 74 1017.0
20260502061550 1 257 6.4 12.9 0.00 0.03 0.00 75 1016.9
20260502061514 1 259 6.4 14.5 0.00 0.03 0.00 74 1016.1
20260502061039 1 275 8.0 16.1 0.00 0.03 0.00 74 1017.0
20260502060517 1 265 11.3 16.1 0.00 0.03 0.00 74 1016.9
20260502060050 1 243 9.7 16.1 0.00 0.03 0.00 73 1016.9
20260502060004 1 251 9.7 20.9 0.00 0.03 0.00 73 1016.4
20260502055517 1 262 11.3 19.3 0.00 0.03 0.00 73 1017.0
20260502054550 1 312 16.1 25.7 0.00 0.03 0.00 75 1017.0
20260502054506 1 304 16.1 24.1 0.00 0.03 0.00 74 1016.3
20260502054017 2 275 11.3 25.7 0.00 0.03 0.00 75 1017.0
20260502053539 2 271 17.7 27.4 0.00 0.03 0.00 75 1016.9
20260502053017 2 299 19.3 27.4 0.00 0.03 0.00 75 1016.9
20260502053011 2 300 19.3 29.0 0.00 0.03 0.00 74 1016.2
20260502052517 2 285 17.7 25.7 0.00 0.03 0.00 76 1016.9
20260502052039 2 283 19.3 27.4 0.00 0.03 0.00 74 1017.0
20260502051540 2 302 20.9 27.4 0.00 0.03 0.00 74 1016.9
20260502051515 2 296 22.5 29.0 0.00 0.03 0.00 74 1016.0
20260502050539 2 307 17.7 25.7 0.00 0.03 0.00 77 1016.9
20260502050032 2 306 17.7 24.1 0.00 0.03 0.00 76 1016.9
20260502050016 2 294 17.7 27.4 0.00 0.03 0.00 75 1015.3
20260502045517 2 306 14.5 25.7 0.00 0.03 0.00 77 1016.9
20260502045017 2 297 17.7 25.7 0.00 0.03 0.00 76 1016.9
20260502044528 2 286 16.1 25.7 0.00 0.03 0.00 76 1016.9
20260502044506 2 286 17.7 27.4 0.00 0.03 0.00 75 1015.5
20260502044050 2 300 19.3 25.7 0.00 0.03 0.00 75 1016.9
20260502043517 2 286 17.7 24.1 0.00 0.03 0.00 75 1016.9
20260502043017 2 330 17.7 25.7 0.00 0.03 0.00 74 1016.9
20260502043008 2 291 19.3 27.4 0.00 0.03 0.00 74 1015.6
20260502042517 2 283 17.7 25.7 0.00 0.03 0.00 76 1016.9
20260502042051 2 275 19.3 25.7 0.00 0.03 0.00 75 1016.9
20260502041539 2 297 14.5 22.5 0.00 0.03 0.00 76 1016.9
20260502041516 2 288 16.1 24.1 0.00 0.03 0.00 75 1016.0
20260502041017 2 296 17.7 22.5 0.00 0.03 0.00 75 1016.9
20260502040517 2 294 17.7 22.5 0.00 0.03 0.00 75 1016.9
20260502040019 2 285 16.1 25.7 0.00 0.03 0.00 75 1016.4
20260502040017 2 276 14.5 22.5 0.00 0.03 0.00 76 1016.9
20260502035517 2 287 17.7 24.1 0.00 0.03 0.03 75 1016.9
20260502034520 2 312 14.5 25.7 0.00 0.03 0.03 76 1016.4
20260502034517 2 300 14.5 24.1 0.00 0.03 0.03 76 1016.9
20260502034039 2 305 16.1 25.7 0.00 0.03 0.03 76 1016.9
20260502033517 2 307 19.3 29.0 0.00 0.03 0.03 75 1017.0
20260502033039 2 310 19.3 29.0 0.00 0.03 0.03 75 1017.0
20260502033004 2 317 19.3 30.6 0.00 0.03 0.03 75 1016.3
20260502032528 2 332 17.7 27.4 0.00 0.03 0.03 76 1016.9
20260502032017 2 303 19.3 25.7 0.00 0.03 0.03 75 1017.0
20260502031517 2 304 16.1 22.5 0.00 0.03 0.03 77 1016.9
20260502031510 2 315 16.1 24.1 0.00 0.03 0.03 76 1016.1
20260502031018 2 309 16.1 22.5 0.00 0.03 0.03 77 1016.9
20260502030517 2 294 16.1 20.9 0.00 0.03 0.03 78 1016.9
20260502030050 2 303 14.5 22.5 0.00 0.03 0.03 78 1017.0
20260502030014 2 309 14.5 24.1 0.00 0.03 0.03 78 1015.7
20260502025528 2 290 16.1 22.5 0.00 0.03 0.03 78 1016.9
20260502025028 2 310 14.5 20.9 0.00 0.03 0.03 78 1017.0
20260502024539 2 299 14.5 20.9 0.00 0.03 0.03 77 1017.0
20260502024521 2 293 14.5 22.5 0.00 0.03 0.03 77 1015.6
20260502024017 2 301 14.5 20.9 0.00 0.03 0.03 77 1017.0
20260502023021 2 276 17.7 25.7 0.00 0.03 0.03 75 1015.8
20260502023017 2 257 16.1 24.1 0.00 0.03 0.03 75 1017.0
20260502022028 2 289 16.1 25.7 0.00 0.03 0.03 74 1017.0
20260502021517 2 290 16.1 24.1 0.00 0.03 0.03 75 1016.9
20260502021514 2 290 17.7 25.7 0.00 0.03 0.03 74 1015.9
20260502021017 2 288 16.1 24.1 0.00 0.03 0.03 75 1016.9
20260502020540 2 302 16.1 20.9 0.00 0.03 0.03 75 1016.9
20260502020003 2 287 14.5 20.9 0.00 0.03 0.03 77 1016.2
20260502015518 2 294 14.5 19.3 0.00 0.03 0.03 77 1017.0
20260502015017 2 309 12.9 19.3 0.00 0.03 0.03 77 1016.9
20260502014517 2 308 14.5 19.3 0.00 0.03 0.03 78 1016.9
20260502014505 2 286 14.5 20.9 0.00 0.03 0.03 77 1016.3
20260502014017 2 300 14.5 17.7 0.00 0.03 0.03 79 1016.9
20260502013539 2 294 14.5 17.7 0.00 0.03 0.03 78 1016.8
20260502013018 2 298 11.3 16.1 0.00 0.03 0.03 79 1016.8
20260502013003 2 292 11.3 17.7 0.00 0.03 0.03 78 1016.2
20260502012039 2 309 11.3 17.7 0.00 0.03 0.03 79 1016.7
20260502011529 2 309 11.3 14.5 0.00 0.03 0.03 78 1016.7
20260502011506 2 293 11.3 16.1 0.00 0.03 0.03 77 1015.8
20260502011018 2 311 11.3 14.5 0.00 0.03 0.03 77 1016.7
20260502010540 2 304 9.7 16.1 0.00 0.03 0.03 77 1016.7
20260502010040 2 279 11.3 16.1 0.00 0.03 0.03 75 1016.6
20260502010004 2 302 11.3 17.7 0.00 0.03 0.03 74 1015.2
20260502005517 2 285 11.3 16.1 0.00 0.03 0.03 74 1016.5
20260502005040 2 291 9.7 19.3 0.00 0.03 0.03 75 1016.5
20260502004518 2 294 14.5 19.3 0.00 0.03 0.03 74 1016.4
20260502004506 2 304 14.5 20.9 0.00 0.03 0.03 73 1015.2
20260502004040 2 291 12.9 19.3 0.00 0.03 0.03 73 1016.4
20260502003540 2 288 16.1 19.3 0.00 0.03 0.03 73 1016.4
20260502003017 3 306 14.5 19.3 0.00 0.03 0.03 73 1016.4
20260502003006 3 298 14.5 20.9 0.00 0.03 0.03 72 1015.2
20260502002540 3 295 14.5 22.5 0.00 0.03 0.03 72 1016.3
20260502002039 3 318 16.1 22.5 0.00 0.03 0.03 72 1016.3
20260502001518 3 296 17.7 22.5 0.00 0.03 0.03 71 1016.3
20260502001504 3 306 17.7 24.1 0.00 0.03 0.03 70 1015.3
20260502001040 3 281 17.7 24.1 0.00 0.03 0.03 71 1016.2
20260502000517 3 309 17.7 25.7 0.00 0.03 0.03 70 1016.2
20260502000008 3 287 19.3 27.4 0.00 0.03 0.03 69 1015.6
20260501235518 3 282 19.3 24.1 0.00 0.03 0.03 71 1016.1
20260501235041 3 314 14.5 20.9 0.00 0.03 0.03 73 1016.1
20260501234517 3 321 14.5 19.3 0.00 0.03 0.03 73 1016.0
20260501234504 3 298 14.5 20.9 0.00 0.03 0.03 73 1015.6
20260501234018 3 310 9.7 16.1 0.00 0.03 0.03 72 1016.0
20260501233018 3 310 12.9 17.7 0.00 0.03 0.03 71 1016.0
20260501233004 3 294 12.9 19.3 0.00 0.03 0.03 71 1015.4
20260501232517 3 306 9.7 16.1 0.00 0.03 0.03 75 1016.0
20260501232018 3 299 9.7 16.1 0.00 0.03 0.03 72 1016.0
20260501231518 3 319 9.7 14.5 0.00 0.03 0.03 71 1016.0
20260501231503 3 309 9.7 14.5 0.00 0.03 0.03 70 1014.7
20260501231017 3 311 8.0 11.3 0.00 0.03 0.03 70 1015.9
20260501230518 3 312 8.0 12.9 0.00 0.03 0.03 69 1015.9
20260501230006 3 315 6.4 14.5 0.00 0.03 0.03 69 1014.6
20260501225518 3 311 8.0 12.9 0.00 0.03 0.03 68 1015.9
20260501225017 3 306 8.0 11.3 0.00 0.03 0.03 68 1015.9
20260501224509 3 302 4.8 12.9 0.00 0.03 0.03 67 1014.6
20260501224018 3 310 8.0 11.3 0.00 0.03 0.03 66 1015.9
20260501223518 3 302 6.4 9.7 0.00 0.03 0.03 66 1015.8
20260501223051 3 325 6.4 11.3 0.00 0.03 0.03 64 1015.8
20260501223007 3 304 6.4 12.9 0.00 0.03 0.03 64 1014.6
20260501222540 3 303 6.4 11.3 0.00 0.03 0.03 65 1015.8
20260501222018 3 295 8.0 11.3 0.00 0.03 0.03 65 1015.7
20260501221540 3 321 8.0 11.3 0.00 0.03 0.03 66 1015.7
20260501221503 3 315 6.4 12.9 0.00 0.03 0.03 65 1014.7
20260501221018 3 304 9.7 11.3 0.00 0.03 0.03 65 1015.7
20260501220540 3 311 8.0 12.9 0.00 0.03 0.03 67 1015.7
20260501220040 3 296 8.0 12.9 0.00 0.03 0.03 67 1015.7
20260501220005 3 315 6.4 14.5 0.00 0.03 0.03 66 1014.6
20260501215528 3 329 6.4 11.3 0.00 0.05 0.03 67 1015.7
20260501215040 3 289 8.0 11.3 0.00 0.05 0.03 66 1015.6
20260501214506 3 297 8.0 14.5 0.00 0.03 0.03 67 1014.8
20260501214018 3 315 8.0 16.1 0.00 0.05 0.03 69 1015.6
20260501213518 3 303 11.3 16.1 0.00 0.05 0.03 69 1015.6
20260501213010 3 312 11.3 17.7 0.00 0.03 0.03 71 1015.3
20260501212540 3 314 9.7 14.5 0.00 0.05 0.03 74 1015.5
20260501212018 3 307 11.3 16.1 0.00 0.05 0.03 72 1015.5
20260501211518 3 317 12.9 16.1 0.00 0.05 0.03 73 1015.5
20260501211503 3 311 12.9 17.7 0.00 0.03 0.03 73 1015.2
20260501211017 3 294 11.3 17.7 0.00 0.05 0.03 75 1015.4
20260501210040 3 302 9.7 19.3 0.00 0.05 0.03 76 1015.4
20260501210006 3 301 11.3 20.9 0.00 0.05 0.03 75 1014.7
20260501205540 3 309 12.9 22.5 0.00 0.08 0.03 75 1015.4
20260501205018 3 310 14.5 24.1 0.00 0.08 0.03 76 1015.2
20260501204518 3 297 14.5 24.1 0.00 0.08 0.03 76 1015.2
20260501204506 3 321 16.1 25.7 0.00 0.05 0.03 75 1014.3
20260501204018 3 328 17.7 25.7 0.00 0.08 0.03 73 1015.2
20260501203540 3 324 16.1 25.7 0.00 0.08 0.03 72 1015.2
20260501203017 3 298 19.3 27.4 0.00 0.08 0.03 73 1015.2
20260501203007 3 322 19.3 29.0 0.00 0.08 0.03 72 1013.9
20260501202518 3 313 20.9 27.4 0.00 0.08 0.03 71 1015.2
20260501202040 3 309 19.3 29.0 0.00 0.08 0.03 70 1015.2
20260501201552 3 329 17.7 30.6 0.00 0.08 0.03 70 1015.2
20260501201514 3 311 17.7 33.8 0.00 0.08 0.03 70 1014.0
20260501201018 4 309 22.5 35.4 0.00 0.08 0.03 63 1015.0
20260501200540 4 289 22.5 35.4 0.00 0.08 0.03 64 1015.0
20260501200018 4 313 24.1 33.8 0.00 0.08 0.03 65 1014.9
20260501200002 4 322 25.7 35.4 0.00 0.08 0.03 62 1013.9
20260501195518 5 302 24.1 35.4 0.00 0.08 0.03 62 1014.9
20260501195040 4 290 25.7 35.4 0.00 0.08 0.03 61 1014.9
20260501194510 4 299 20.9 33.8 0.00 0.08 0.03 57 1014.1
20260501193540 4 307 22.5 30.6 0.00 0.08 0.03 62 1014.9
20260501193018 4 298 22.5 30.6 0.00 0.08 0.03 63 1015.0
20260501192018 4 302 25.7 32.2 0.00 0.08 0.03 63 1014.9
20260501191540 4 318 24.1 32.2 0.00 0.08 0.03 66 1015.0
20260501191520 3 302 24.1 33.8 0.00 0.08 0.03 65 1014.1
20260501191018 3 315 20.9 29.0 0.00 0.08 0.03 69 1015.0
20260501190518 3 286 19.3 25.7 0.00 0.08 0.03 70 1015.0
20260501190040 3 317 20.9 29.0 0.00 0.08 0.03 69 1015.0
20260501190016 3 318 22.5 30.6 0.00 0.08 0.03 68 1014.2
20260501185518 3 298 22.5 29.0 0.00 0.08 0.03 70 1014.9
20260501185018 3 275 17.7 27.4 0.00 0.08 0.03 70 1014.9
20260501184540 3 314 20.9 27.4 0.00 0.08 0.03 68 1014.9
20260501184518 3 303 22.5 29.0 0.00 0.08 0.03 66 1014.6
20260501184052 4 286 17.7 24.1 0.00 0.08 0.03 69 1015.0